Location: Sungai Dangang
(2.7500°N, 113.8333°E)
Time: 12:16:00
(UTC+00:00)

Ariane H10+ - Pass Details

Date: 04 October 2021
Orbit: 237 x 7764 km, 6.8° (Epoch: 15 October)

Event Time Altitude Azimuth Distance (km) Brightness Sun altitude
Exits shadow 18:47:47 63° 123° (ESE) 2,728 4.6 -51.4°
Drops below altitude 10° 19:14:34 10° 87° (E) 9,455 8.1 -44.7°
Sets 19:26:40 0° 86° (E) 11,666 8.9 -41.7°
